TimeEDT,TemperatureF,Dew PointF,Humidity,Sea Level PressureIn,VisibilityMPH,Wind Direction,Wind SpeedMPH,Gust SpeedMPH,PrecipitationIn,Events,Conditions,WindDirDegrees,DateUTC
12:19 AM,53.6,51.8,94,29.51,1.8,Calm,Calm,-,N/A,,Clear,0,2012-10-31 04:19:00
12:27 AM,53.6,51.8,94,29.50,2.0,NNW,3.5,-,N/A,,Partly Cloudy,330,2012-10-31 04:27:00
12:37 AM,53.6,51.8,94,29.50,5.0,NE,4.6,-,N/A,,Partly Cloudy,40,2012-10-31 04:37:00
12:53 AM,53.1,52.0,96,29.50,9.0,Calm,Calm,-,N/A,,Mostly Cloudy,0,2012-10-31 04:53:00
1:53 AM,54.0,53.1,97,29.49,8.0,Calm,Calm,-,0.00,,Mostly Cloudy,0,2012-10-31 05:53:00
2:53 AM,55.0,54.0,96,29.48,10.0,NW,5.8,-,0.04,Rain,Light Rain,310,2012-10-31 06:53:00
3:09 AM,55.4,53.6,94,29.48,10.0,Calm,Calm,-,0.00,Rain,Light Rain,0,2012-10-31 07:09:00
3:20 AM,55.4,53.6,94,29.47,10.0,NE,5.8,-,0.00,,Overcast,50,2012-10-31 07:20:00
3:42 AM,53.6,53.6,100,29.47,10.0,Calm,Calm,-,0.00,,Mostly Cloudy,0,2012-10-31 07:42:00
3:53 AM,55.0,53.1,93,29.47,8.0,Calm,Calm,-,0.00,,Partly Cloudy,0,2012-10-31 07:53:00
3:58 AM,53.6,51.8,94,29.47,1.5,Calm,Calm,-,N/A,,Partly Cloudy,0,2012-10-31 07:58:00
4:03 AM,53.6,51.8,94,29.47,0.8,Calm,Calm,-,N/A,,Mist,0,2012-10-31 08:03:00
4:10 AM,53.6,53.6,100,29.47,2.0,Calm,Calm,-,N/A,,Mostly Cloudy,0,2012-10-31 08:10:00
4:18 AM,53.6,53.6,100,29.47,5.0,Calm,Calm,-,N/A,,Mostly Cloudy,0,2012-10-31 08:18:00
4:29 AM,51.8,51.8,100,29.47,1.8,Calm,Calm,-,N/A,,Mostly Cloudy,0,2012-10-31 08:29:00
4:37 AM,53.6,51.8,94,29.47,0.8,Calm,Calm,-,N/A,,Mist,0,2012-10-31 08:37:00
4:41 AM,53.6,51.8,94,29.47,1.2,Calm,Calm,-,N/A,,Partly Cloudy,0,2012-10-31 08:41:00
4:45 AM,51.8,51.8,100,29.47,1.0,Calm,Calm,-,N/A,,Mist,0,2012-10-31 08:45:00
4:53 AM,53.1,51.1,93,29.46,0.5,Calm,Calm,-,N/A,Fog,Fog,0,2012-10-31 08:53:00
4:59 AM,55.4,53.6,94,29.46,1.5,SE,3.5,-,N/A,,Scattered Clouds,140,2012-10-31 08:59:00
5:05 AM,51.8,51.8,100,29.47,0.8,SW,4.6,-,N/A,,Mist,220,2012-10-31 09:05:00
5:18 AM,51.8,50.0,94,29.47,1.2,SSW,5.8,-,N/A,,Scattered Clouds,210,2012-10-31 09:18:00
5:30 AM,51.8,51.8,100,29.48,3.0,SSW,6.9,-,N/A,,Partly Cloudy,200,2012-10-31 09:30:00
5:53 AM,54.0,53.1,97,29.48,9.0,SSW,8.1,-,N/A,,Clear,210,2012-10-31 09:53:00
6:53 AM,54.0,52.0,93,29.50,10.0,SW,6.9,-,0.01,,Partly Cloudy,220,2012-10-31 10:53:00
7:53 AM,54.0,52.0,93,29.52,10.0,Calm,Calm,-,N/A,,Overcast,0,2012-10-31 11:53:00
8:50 AM,55.4,50.0,82,29.53,10.0,SW,9.2,-,N/A,,Overcast,220,2012-10-31 12:50:00
8:53 AM,55.0,50.0,83,29.53,10.0,SW,6.9,-,N/A,,Overcast,230,2012-10-31 12:53:00
9:53 AM,54.0,48.9,83,29.54,10.0,WSW,4.6,-,N/A,,Overcast,240,2012-10-31 13:53:00
10:53 AM,55.0,48.0,77,29.55,10.0,SW,5.8,-,N/A,,Overcast,230,2012-10-31 14:53:00
11:00 AM,55.4,48.2,77,29.55,10.0,SW,3.5,-,N/A,,Overcast,230,2012-10-31 15:00:00
11:53 AM,55.9,48.0,75,29.54,10.0,SW,4.6,-,N/A,,Overcast,220,2012-10-31 15:53:00
12:53 PM,55.9,46.0,69,29.54,10.0,WSW,8.1,-,N/A,,Overcast,240,2012-10-31 16:53:00
1:03 PM,53.6,46.4,77,29.54,8.0,WSW,10.4,-,0.00,Rain,Light Rain,240,2012-10-31 17:03:00
1:23 PM,53.6,46.4,77,29.53,10.0,SW,5.8,-,0.00,,Overcast,230,2012-10-31 17:23:00
1:53 PM,54.0,46.0,75,29.53,10.0,SSW,6.9,-,0.00,,Overcast,210,2012-10-31 17:53:00
2:53 PM,55.0,45.0,69,29.53,10.0,SW,8.1,17.3,N/A,,Overcast,230,2012-10-31 18:53:00
3:53 PM,54.0,45.0,72,29.55,10.0,SW,10.4,-,N/A,,Overcast,220,2012-10-31 19:53:00
4:53 PM,53.1,45.0,74,29.54,10.0,SW,9.2,-,N/A,,Mostly Cloudy,220,2012-10-31 20:53:00
5:53 PM,50.0,44.1,80,29.55,10.0,SSW,3.5,-,N/A,,Mostly Cloudy,210,2012-10-31 21:53:00
6:53 PM,52.0,45.0,77,29.55,10.0,Calm,Calm,-,N/A,,Overcast,0,2012-10-31 22:53:00
7:53 PM,52.0,46.0,80,29.57,10.0,SW,5.8,-,N/A,,Overcast,230,2012-10-31 23:53:00
8:53 PM,52.0,45.0,77,29.57,10.0,SW,5.8,-,N/A,,Overcast,230,2012-11-01 00:53:00
9:53 PM,52.0,42.1,69,29.58,10.0,SW,5.8,-,N/A,,Overcast,230,2012-11-01 01:53:00
10:53 PM,50.0,42.1,74,29.58,10.0,SW,4.6,-,N/A,,Partly Cloudy,230,2012-11-01 02:53:00
11:53 PM,46.9,42.1,83,29.57,10.0,Calm,Calm,-,N/A,,Clear,0,2012-11-01 03:53:00